Campo, CA

1:21 AM PST on December 11, 2019 (GMT -0800)
Campo

Weather History for KCZZ - August, 2019

Change the Weather History Date:

Monday, August 5, 2019

  Actual Average Record
Temperature  
Mean Temperature 80 °F 74 °F  
Max Temperature 102 °F 95 °F 105 °F (1998)
Min Temperature 57 °F 54 °F 36 °F (1962)
Degree Days  
Heating Degree Days 0 0  
Month to date heating degree days 0 0  
Since 1 June heating degree days 42 63  
Since 1 July heating degree days 6 7  
Cooling Degree Days 15 9  
Month to date cooling degree days 68 45  
Year to date cooling degree days 396 417  
Since 1 June cooling degree days 394 387  
Growing Degree Days 30 (Base 50)    
Moisture  
Dew Point 47 °F    
Average Humidity 41    
Maximum Humidity 72    
Minimum Humidity 10    
Precipitation  
Precipitation 0.00 in 0.02 in 0.30 in (1955)
Month to date precipitation 0.00 0.10  
Year to date precipitation 12.82 10.57  
Sea Level Pressure  
Sea Level Pressure 29.86 in    
Wind  
Wind Speed 8 mph (NNW)    
Max Wind Speed 18 mph    
Max Gust Speed 26 mph    
T = Trace of Precipitation, MM = Missing Value Source: NWS Daily Summary

Daily Weather History Graph

Daily Weather History Graph

Search for Another Location

Airport or City:

Astronomy

Aug. 05, 2019 Rise Set
Actual Time 6:02 AM PDT 7:40 PM PDT
Civil Twilight 5:36 AM PDT 8:07 PM PDT
Nautical Twilight 5:04 AM PDT 8:39 PM PDT
Astronomical Twilight 4:30 AM PDT 9:12 PM PDT
Moon 11:07 AM PDT (8/5) 11:13 PM PDT (8/5)
Length of Visible Light 14h 31m
Length of Day
13h 37m
Waxing Crescent, 29% of the Moon is Illuminated
Aug 5
Waxing Crescent
Aug 7
First Quarter
Aug 15
Full
Aug 23
Last Quarter
Aug 30
New

Hourly Weather History & Observations

Time (PDT) Temp. Heat Index Dew Point Humidity Pressure Visibility Wind Dir Wind Speed Gust Speed Precip Events Conditions
12:52 AM 63.0 °F - 51.1 °F 65% 29.89 in - NE 4.6 mph - N/A   Unknown
1:52 AM 63.0 °F - 51.1 °F 65% 29.88 in - NE 4.6 mph - N/A   Unknown
2:52 AM 61.0 °F - 51.1 °F 70% 29.88 in - NE 6.9 mph - N/A   Unknown
3:52 AM 61.0 °F - 50.0 °F 67% 29.87 in - NE 5.8 mph - N/A   Unknown
4:52 AM 60.1 °F - 48.0 °F 64% 29.87 in - NE 5.8 mph - N/A   Unknown
5:52 AM 60.1 °F - 46.0 °F 60% 29.88 in - NE 5.8 mph - N/A   Unknown
6:52 AM 61.0 °F - 44.1 °F 54% 29.89 in - ENE 6.9 mph - N/A   Unknown
7:52 AM 72.0 °F - 45.0 °F 38% 29.89 in - NE 3.5 mph - N/A   Unknown
8:52 AM 86.0 °F - 39.9 °F 20% 29.87 in - Calm Calm - N/A   Unknown
9:52 AM 93.0 °F - 30.9 °F 11% 29.87 in - SW 8.1 mph - N/A   Unknown
10:52 AM 96.1 °F - 34.0 °F 11% 29.87 in - SSW 10.4 mph - N/A   Unknown
11:52 AM 100.9 °F - 34.0 °F 10% 29.85 in - SW 12.7 mph - N/A   Unknown
12:52 PM 100.0 °F - 37.9 °F 12% 29.84 in - West 11.5 mph 25.3 mph N/A   Unknown
2:52 PM 100.0 °F - 42.1 °F 14% 29.83 in - West 12.7 mph 21.9 mph N/A   Unknown
3:52 PM 99.0 °F - 44.1 °F 15% 29.82 in - West 13.8 mph 19.6 mph N/A   Unknown
4:52 PM 98.1 °F - 45.0 °F 16% 29.82 in - West 9.2 mph - N/A   Unknown
5:52 PM 95.0 °F - 45.0 °F 18% 29.81 in - West 12.7 mph - N/A   Unknown
6:52 PM 84.9 °F 83.6 °F 55.0 °F 36% 29.83 in - SSW 15.0 mph - N/A   Unknown
7:52 PM 78.1 °F - 55.9 °F 46% 29.85 in - SSW 8.1 mph - N/A   Unknown
8:52 PM 75.0 °F - 57.0 °F 53% 29.86 in - SSW 8.1 mph - N/A   Unknown
9:52 PM 72.0 °F - 55.9 °F 57% 29.87 in - Calm Calm - N/A   Unknown
10:52 PM 71.1 °F - 55.0 °F 57% 29.87 in - NNE 3.5 mph - N/A   Unknown
11:52 PM 70.0 °F - 54.0 °F 57% 29.86 in - NE 3.5 mph - N/A   Unknown